Observations for Trim Market St
| Time | AQI | Temp °C | Hum % | Pres Pa | CO μg/m³ | H₂S μg/m³ | NO μg/m³ | NO₂ μg/m³ | O₃ μg/m³ | SO₂ μg/m³ | PM1 μg/m³ | PM2.5 μg/m³ | PM10 μg/m³ |
|---|---|---|---|---|---|---|---|---|---|---|---|---|---|
| Wednesday 15 July 2026 | |||||||||||||
| 17:52 | 1 | 28.7 | 43 | 63,236 | 0 | 23.9 | 0 | 16.25 | 39.94 | 0 | 6.41 | 10.63 | 15.4 |
| 17:49 | 1 | 28.9 | 42 | 63,799 | 0 | 24.91 | 0 | 15.35 | 39.77 | 0 | 7.84 | 12.23 | 16.22 |
| 17:46 | 1 | 29.1 | 42 | 64,054 | 0 | 24.8 | 0 | 15.76 | 41.51 | 0 | 5.7 | 9.64 | 12.29 |
| 17:42 | 1 | 29.3 | 41 | 64,396 | 0 | 27.31 | 0 | 15.49 | 40.24 | 0 | 7.13 | 10.21 | 13.12 |
| 17:40 | 1 | 29.5 | 41 | 64,546 | 0 | 26.74 | 0 | 14.88 | 40.3 | 0 | 7.13 | 9.71 | 12.33 |
| 17:37 | 1 | 29.7 | 40 | 64,833 | 0 | 30.65 | 0 | 17.21 | 41.77 | 0 | 5.7 | 9.75 | 14.77 |
| 17:32 | 1 | 30.3 | 38 | 65,309 | 0 | 32.43 | 0 | 15.22 | 48.34 | 0 | 6.41 | 10.91 | 15.67 |
| 17:31 | 1 | 30.4 | 38 | 65,435 | 0 | 27.92 | 0 | 14.04 | 47.67 | 0 | 6.41 | 10.93 | 14.06 |
| 17:30 | 1 | 30.5 | 38 | 65,538 | 0 | 28.67 | 0 | 17.54 | 38.68 | 0 | 6.41 | 10.42 | 14.07 |
| 17:29 | 1 | 30.7 | 38 | 65,605 | 0 | 28.63 | 0 | 12.42 | 46.22 | 0 | 5.7 | 9.38 | 14.9 |
| 17:28 | 1 | 30.8 | 37 | 65,688 | 0 | 27.23 | 0 | 11.13 | 46.3 | 0 | 7.84 | 11.52 | 14.92 |
| 17:27 | 1 | 31 | 37 | 65,768 | 0 | 29.24 | 0 | 11.91 | 44.8 | 0 | 5.7 | 11.01 | 14.11 |
| 17:26 | 1 | 31.2 | 37 | 65,868 | 0 | 28.88 | 0 | 12.89 | 49.03 | 0 | 8.55 | 11.56 | 14.95 |
| 17:25 | 1 | 31.3 | 36 | 65,937 | 0 | 26.19 | 0 | 10.72 | 45.31 | 0 | 5.7 | 9.99 | 12.49 |
| 17:24 | 1 | 31.5 | 36 | 65,999 | 0 | 25.16 | 0 | 9.5 | 49.04 | 0 | 6.41 | 11.08 | 14.17 |
| 17:23 | 1 | 31.7 | 35 | 66,044 | 0 | 20.91 | 0 | 5.89 | 45.6 | 0 | 7.13 | 11.64 | 15.85 |
| 17:22 | 1 | 31.9 | 35 | 66,070 | 0 | 18.1 | 0 | 4.56 | 45.06 | 0 | 6.41 | 10.58 | 13.36 |
| 17:21 | 1 | 32.1 | 35 | 66,127 | 0 | 20.24 | 0 | 7.23 | 46.15 | 0 | 7.13 | 11.13 | 15.87 |
| 17:20 | 1 | 32.3 | 35 | 66,171 | 0 | 19.42 | 0 | 7.21 | 43.78 | 0 | 6.41 | 9.54 | 12.54 |
| 17:19 | 1 | 32.5 | 34 | 66,231 | 0 | 18.33 | 0 | 5.19 | 36.26 | 0 | 7.13 | 13.32 | 18.42 |